Location: Nitra
(0.0000°N, 18.0833°E)
Time: 17:21:04
(UTC+02:00)

A-11 Canister half - All Passes

Search period start: 30 March 2023 00:00
Search period end: 09 April 2023 00:00
Orbit: 1512 x 1687 km, 47.2° (Epoch: 29 March)

Date Brightness Start Highest point End Pass type
(mag) Time Alt. Az. Time Alt. Az. Time Alt. Az.
30 Mar - 04:05:01 10° N 04:12:44 24° NE 04:20:18 10° E visible
30 Mar - 06:07:45 10° NW 06:17:48 73° SW 06:27:32 10° SSE visible
30 Mar - 08:19:01 10° WSW 08:23:03 13° SW 08:27:04 10° SSW daylight
30 Mar - 16:54:26 10° SSW 17:03:20 50° SE 17:12:26 10° ENE daylight
30 Mar - 18:59:53 10° WSW 19:08:04 34° NW 19:16:32 10° NNE visible
31 Mar - 03:42:22 10° N 03:49:43 22° NE 03:56:54 10° E visible
31 Mar - 05:44:43 10° NW 05:54:50 79° SW 06:04:39 10° SE visible
31 Mar - 07:55:04 10° WSW 08:00:01 15° SW 08:04:55 10° SSW daylight
31 Mar - 16:31:40 10° SSW 16:40:24 46° SE 16:49:19 10° ENE daylight
31 Mar - 18:36:43 10° WSW 18:45:06 37° NW 18:53:45 10° NNE daylight
01 Apr - 03:19:47 10° N 03:26:40 20° NE 03:33:28 10° E visible
01 Apr - 05:21:42 10° NW 05:31:52 85° SW 05:41:44 10° SE visible
01 Apr - 07:31:18 10° W 07:36:59 17° SW 07:42:37 10° S daylight
01 Apr - 16:08:53 10° SSW 16:17:28 42° SE 16:26:11 10° ENE daylight
01 Apr - 18:13:36 10° WSW 18:22:08 41° NW 18:30:58 10° NNE daylight
02 Apr - 02:57:14 10° N 03:03:38 18° NE 03:09:56 10° E visible
02 Apr - 04:58:44 10° NW 05:08:54 89° NE 05:18:48 10° SE visible
02 Apr - 07:07:39 10° W 07:13:58 19° SW 07:20:12 10° S daylight
02 Apr - 15:46:09 10° SSW 15:54:32 38° SE 16:03:01 10° ENE daylight
02 Apr - 17:50:30 10° WSW 17:59:11 44° NW 18:08:09 10° NNE daylight
03 Apr - 02:34:46 10° N 02:40:35 17° NE 02:46:20 10° E visible
03 Apr - 04:35:46 10° NW 04:45:56 83° NE 04:55:52 10° SE visible
03 Apr - 06:44:05 10° W 06:50:57 21° SW 06:57:43 10° S daylight
03 Apr - 15:23:25 10° SSW 15:31:34 35° SE 15:39:49 10° ENE daylight
03 Apr - 17:27:26 10° WSW 17:36:15 48° NW 17:45:20 10° NNE daylight
04 Apr - 02:12:23 10° NNE 02:17:31 15° NE 02:22:36 10° ENE visible
04 Apr - 04:12:48 10° NW 04:22:58 77° NE 04:32:53 10° SE visible
04 Apr - 06:20:37 10° W 06:27:57 23° SW 06:35:10 10° S visible
04 Apr - 15:00:43 10° S 15:08:38 32° SE 15:16:36 10° ENE daylight
04 Apr - 17:04:22 10° SW 17:13:18 53° NW 17:22:30 10° NNE daylight
05 Apr - 01:50:10 10° NNE 01:54:27 13° NE 01:58:42 10° ENE visible
05 Apr - 03:49:52 10° NNW 04:00:00 71° NE 04:09:54 10° SE visible
05 Apr - 05:57:11 10° W 06:04:56 25° SW 06:12:34 10° S visible
05 Apr - 14:38:03 10° S 14:45:41 29° SE 14:53:21 10° ENE daylight
05 Apr - 16:41:20 10° SW 16:50:22 58° NW 16:59:38 10° NNE daylight
06 Apr - 01:28:13 10° NNE 01:31:22 12° NE 01:34:31 10° ENE night (unlit)
06 Apr - 03:26:57 10° NNW 03:37:01 65° NE 03:46:53 10° SE visible
06 Apr - 05:33:49 10° WNW 05:41:56 28° SW 05:49:56 10° S visible
06 Apr - 14:15:24 10° S 14:22:43 26° SE 14:30:04 10° ENE daylight
06 Apr - 16:18:20 10° SW 16:27:26 63° NW 16:36:46 10° NNE daylight
07 Apr - 01:07:13 10° NE 01:08:16 10° NE 01:09:20 10° NE night (unlit)
07 Apr - 03:04:03 10° NNW 03:14:03 60° NE 03:23:51 10° SE visible
07 Apr - 05:10:30 10° WNW 05:18:56 30° SW 05:27:16 10° S visible
07 Apr - 13:52:47 10° S 13:59:45 24° SE 14:06:44 10° E daylight
07 Apr - 15:55:21 10° SW 16:04:30 69° NW 16:13:52 10° NNE daylight
07 Apr - 18:07:13 10° WNW 18:09:55 11° NW 18:12:38 10° NNW daylight
08 Apr - 02:41:11 10° NNW 02:51:04 56° NE 03:00:47 10° SE visible
08 Apr - 04:47:12 10° WNW 04:55:56 33° SW 05:04:34 10° SSE visible
08 Apr - 13:30:12 10° S 13:36:46 21° SE 13:43:21 10° E daylight
08 Apr - 15:32:22 10° SW 15:41:35 75° NW 15:50:59 10° NE daylight
08 Apr - 17:43:05 10° WNW 17:46:52 13° NW 17:50:43 10° NNW daylight
